TimeCDT,TemperatureF,Dew PointF,Humidity,Sea Level PressureIn,VisibilityMPH,Wind Direction,Wind SpeedMPH,Gust SpeedMPH,PrecipitationIn,Events,Conditions,WindDirDegrees,DateUTC
12:15 AM,77.4,67.1,71,29.99,7.0,Calm,Calm,-,N/A,,Clear,0,2013-08-19 05:15:00
12:35 AM,76.6,66.7,71,29.99,7.0,ESE,3.5,-,N/A,,Clear,120,2013-08-19 05:35:00
12:55 AM,76.3,66.4,71,29.99,7.0,Calm,Calm,-,N/A,,Clear,0,2013-08-19 05:55:00
1:15 AM,76.1,66.4,72,29.99,7.0,Calm,Calm,-,N/A,,Clear,0,2013-08-19 06:15:00
1:35 AM,76.6,66.6,71,29.98,7.0,Calm,Calm,-,N/A,,Clear,0,2013-08-19 06:35:00
1:55 AM,76.5,66.0,70,29.98,7.0,Calm,Calm,-,N/A,,Clear,0,2013-08-19 06:55:00
2:15 AM,75.0,66.4,74,29.97,7.0,Calm,Calm,-,N/A,,Clear,0,2013-08-19 07:15:00
2:35 AM,75.4,66.7,74,29.97,7.0,Calm,Calm,-,N/A,,Clear,0,2013-08-19 07:35:00
2:55 AM,74.8,66.6,75,29.96,7.0,Calm,Calm,-,N/A,,Clear,0,2013-08-19 07:55:00
3:15 AM,73.9,66.6,78,29.96,7.0,Calm,Calm,-,N/A,,Clear,0,2013-08-19 08:15:00
3:35 AM,75.2,66.6,74,29.96,7.0,Calm,Calm,-,N/A,,Clear,0,2013-08-19 08:35:00
3:55 AM,74.3,66.4,76,29.95,7.0,Calm,Calm,-,N/A,,Clear,0,2013-08-19 08:55:00
4:15 AM,73.9,65.7,75,29.95,7.0,Calm,Calm,-,N/A,,Clear,0,2013-08-19 09:15:00
4:35 AM,73.0,65.7,78,29.94,7.0,East,3.5,-,N/A,,Clear,80,2013-08-19 09:35:00
4:55 AM,72.5,65.5,79,29.94,5.0,Calm,Calm,-,N/A,,Haze,0,2013-08-19 09:55:00
5:15 AM,73.6,66.2,78,29.94,7.0,Calm,Calm,-,N/A,,Clear,0,2013-08-19 10:15:00
5:35 AM,72.5,65.7,79,29.95,7.0,West,3.5,-,N/A,,Clear,270,2013-08-19 10:35:00
5:55 AM,71.4,64.6,79,29.96,7.0,WNW,4.6,-,N/A,,Clear,290,2013-08-19 10:55:00
6:15 AM,72.1,65.3,79,29.96,7.0,Calm,Calm,-,N/A,,Clear,0,2013-08-19 11:15:00
6:35 AM,72.0,64.8,78,29.97,7.0,Calm,Calm,-,N/A,,Clear,0,2013-08-19 11:35:00
6:55 AM,71.8,65.1,79,29.97,7.0,West,4.6,-,N/A,,Clear,260,2013-08-19 11:55:00
7:15 AM,71.2,64.9,80,29.98,5.0,WNW,4.6,-,N/A,,Haze,290,2013-08-19 12:15:00
7:35 AM,71.8,65.7,81,29.99,1.8,WNW,3.5,-,N/A,,Haze,300,2013-08-19 12:35:00
7:55 AM,73.6,66.4,78,29.99,5.0,NNW,4.6,-,N/A,,Haze,330,2013-08-19 12:55:00
8:15 AM,75.2,66.9,75,30.00,5.0,NNW,3.5,-,N/A,,Haze,330,2013-08-19 13:15:00
8:35 AM,77.4,68.2,73,30.00,5.0,NNW,4.6,-,N/A,,Haze,330,2013-08-19 13:35:00
8:55 AM,79.3,69.4,72,30.01,7.0,NNW,4.6,-,N/A,,Clear,340,2013-08-19 13:55:00
9:15 AM,81.0,70.0,69,30.01,7.0,North,3.5,-,N/A,,Clear,350,2013-08-19 14:15:00
9:35 AM,83.1,70.7,66,30.01,5.0,North,4.6,-,N/A,,Haze,10,2013-08-19 14:35:00
9:55 AM,85.1,71.4,63,30.01,7.0,NNE,6.9,-,N/A,,Clear,30,2013-08-19 14:55:00
10:15 AM,86.4,71.1,60,30.02,5.0,NE,5.8,-,N/A,,Haze,40,2013-08-19 15:15:00
10:35 AM,87.3,69.6,56,30.02,7.0,NE,5.8,-,N/A,,Scattered Clouds,40,2013-08-19 15:35:00
10:55 AM,87.4,68.7,54,30.02,10.0,NE,5.8,-,N/A,,Scattered Clouds,50,2013-08-19 15:55:00
11:35 AM,90.0,68.0,48,30.01,7.0,East,3.5,-,N/A,,Mostly Cloudy,90,2013-08-19 16:35:00
11:55 AM,90.9,66.9,45,30.01,7.0,SE,5.8,-,N/A,,Scattered Clouds,130,2013-08-19 16:55:00
12:15 PM,92.3,66.6,43,30.00,7.0,ENE,3.5,-,N/A,,Scattered Clouds,60,2013-08-19 17:15:00
12:35 PM,91.0,65.8,43,29.99,5.0,East,4.6,-,N/A,,Haze,100,2013-08-19 17:35:00
12:55 PM,90.9,64.4,41,29.99,10.0,ESE,8.1,-,N/A,,Overcast,120,2013-08-19 17:55:00
1:15 PM,92.5,66.0,42,29.98,7.0,SE,10.4,-,N/A,,Mostly Cloudy,140,2013-08-19 18:15:00
1:35 PM,93.4,65.3,39,29.97,7.0,SSE,5.8,-,N/A,,Mostly Cloudy,150,2013-08-19 18:35:00
1:55 PM,93.6,65.3,39,29.96,7.0,SSE,12.7,17.3,N/A,,Scattered Clouds,160,2013-08-19 18:55:00
2:15 PM,93.4,64.4,38,29.95,10.0,SSE,10.4,-,N/A,,Mostly Cloudy,160,2013-08-19 19:15:00
2:35 PM,94.1,62.6,35,29.95,7.0,ESE,10.4,-,N/A,,Mostly Cloudy,110,2013-08-19 19:35:00
2:55 PM,94.6,61.7,33,29.94,7.0,SE,10.4,-,N/A,,Scattered Clouds,130,2013-08-19 19:55:00
3:15 PM,94.1,61.9,34,29.93,7.0,SE,10.4,-,N/A,,Mostly Cloudy,140,2013-08-19 20:15:00
3:35 PM,93.2,62.6,36,29.92,7.0,SE,6.9,-,N/A,,Mostly Cloudy,140,2013-08-19 20:35:00
3:55 PM,95.2,62.6,34,29.91,7.0,SE,9.2,-,N/A,,Scattered Clouds,130,2013-08-19 20:55:00
4:15 PM,94.6,62.8,35,29.90,7.0,ESE,9.2,-,N/A,,Scattered Clouds,110,2013-08-19 21:15:00
4:35 PM,95.7,62.8,34,29.90,7.0,ESE,5.8,20.7,N/A,,Clear,120,2013-08-19 21:35:00
4:55 PM,96.1,62.8,33,29.89,7.0,SE,9.2,19.6,N/A,,Clear,130,2013-08-19 21:55:00
5:15 PM,96.8,62.6,32,29.89,7.0,East,17.3,24.2,N/A,,Scattered Clouds,90,2013-08-19 22:15:00
5:35 PM,96.1,62.8,33,29.88,7.0,East,13.8,-,N/A,,Scattered Clouds,90,2013-08-19 22:35:00
5:55 PM,94.8,64.0,36,29.88,7.0,ESE,11.5,-,N/A,,Scattered Clouds,120,2013-08-19 22:55:00
6:15 PM,94.6,63.3,35,29.88,10.0,East,13.8,-,N/A,,Scattered Clouds,90,2013-08-19 23:15:00
6:35 PM,93.4,62.8,36,29.88,7.0,East,16.1,-,N/A,,Mostly Cloudy,90,2013-08-19 23:35:00
6:55 PM,91.8,63.9,39,29.89,10.0,East,15.0,-,N/A,,Scattered Clouds,90,2013-08-19 23:55:00
7:15 PM,91.6,63.9,40,29.89,7.0,East,13.8,20.7,N/A,,Clear,90,2013-08-20 00:15:00
7:35 PM,90.9,64.0,41,29.90,10.0,East,13.8,-,N/A,,Clear,100,2013-08-20 00:35:00
7:55 PM,89.6,63.9,42,29.90,10.0,East,13.8,-,N/A,,Clear,100,2013-08-20 00:55:00
8:15 PM,88.3,64.8,45,29.91,10.0,East,13.8,-,N/A,,Clear,100,2013-08-20 01:15:00
8:35 PM,87.1,64.9,48,29.92,10.0,East,10.4,-,N/A,,Clear,100,2013-08-20 01:35:00
8:55 PM,86.0,66.2,51,29.92,10.0,East,9.2,-,N/A,,Clear,100,2013-08-20 01:55:00
9:15 PM,85.1,67.3,55,29.93,10.0,East,6.9,-,N/A,,Clear,90,2013-08-20 02:15:00
9:35 PM,83.8,69.1,61,29.94,7.0,East,6.9,-,N/A,,Clear,90,2013-08-20 02:35:00
9:55 PM,83.3,70.9,66,29.94,7.0,East,6.9,-,N/A,,Clear,90,2013-08-20 02:55:00
10:15 PM,82.6,71.2,68,29.94,7.0,East,5.8,-,N/A,,Clear,100,2013-08-20 03:15:00
10:35 PM,82.2,71.4,70,29.95,7.0,East,6.9,-,N/A,,Clear,90,2013-08-20 03:35:00
10:55 PM,81.7,71.1,70,29.95,10.0,East,4.6,-,N/A,,Clear,80,2013-08-20 03:55:00
11:15 PM,80.8,71.4,73,29.95,10.0,East,3.5,-,N/A,,Clear,80,2013-08-20 04:15:00
11:35 PM,80.8,71.1,72,29.95,10.0,East,3.5,-,N/A,,Clear,80,2013-08-20 04:35:00
11:55 PM,79.9,70.5,73,29.95,10.0,Calm,Calm,-,N/A,,Clear,0,2013-08-20 04:55:00